Weather History for Rome, OR

Change the Weather History Date:

Friday, May 4, 2012

  Actual Average Record
Temperature  
Mean Temperature 43 °F 51 °F  
Max Temperature 54 °F 66 °F 93 °F (1966)
Min Temperature 32 °F 35 °F 23 °F (2011)
Degree Days  
Heating Degree Days 22 15  
Month to date heating degree days 74 60  
Since 1 July heating degree days 5840 6154  
Cooling Degree Days 0 0  
Month to date cooling degree days 0 0  
Year to date cooling degree days 4 0  
Moisture  
Dew Point 33 °F    
Average Humidity 68    
Maximum Humidity 92    
Minimum Humidity 44    
Precipitation  
Precipitation 0.21 in 0.04 in 0.62 in (2003)
Month to date precipitation 0.25 0.16  
Year to date precipitation 3.33 3.53  
Sea Level Pressure  
Sea Level Pressure 30.05 in    
Wind  
Wind Speed 6 mph (NW)    
Max Wind Speed 24 mph    
Max Gust Speed 29 mph    
T = Trace of Precipitation, MM = Missing Value Source: NWS Daily Summary

Daily Weather History Graph

Daily Weather History Graph

Search for Another Location

Airport:

Trip Planner

Search our weather history database for the weather conditions in past years. The results will help you decide how hot, cold, wet, or windy it might be!

Date:

Astronomy

May. 04, 2012 Rise Set
Actual Time 5:41 AM PDT 7:55 PM PDT
Civil Twilight 5:10 AM PDT 8:26 PM PDT
Nautical Twilight 4:31 AM PDT 9:05 PM PDT
Astronomical Twilight 3:49 AM PDT 9:48 PM PDT
Moon 6:38 PM PDT (5/4) 4:27 AM PDT (5/4)
Length of Visible Light 15h 16m
Length of Day
14h 14m
Waxing Gibbous, 97% of the Moon is Illuminated
May 4
Waxing Gibbous
May 5
Full
May 12
Last Quarter
May 20
New
May 28
First Quarter

Hourly Weather History & Observations

Time (PDT) Temp. Windchill Dew Point Humidity Pressure Visibility Wind Dir Wind Speed Gust Speed Precip Events Conditions
12:52 AM 44.1 °F 40.1 °F 28.9 °F 55% 29.90 in - SSW 6.9 mph - N/A   Unknown
1:52 AM 42.1 °F 40.2 °F 28.9 °F 60% 29.91 in - North 3.5 mph - N/A   Unknown
2:52 AM 42.1 °F 37.7 °F 30.0 °F 62% 29.92 in - ENE 6.9 mph - N/A   Unknown
3:52 AM 37.9 °F 32.1 °F 28.0 °F 68% 29.94 in - East 8.1 mph - N/A   Unknown
4:52 AM 35.1 °F 32.2 °F 28.0 °F 76% 29.93 in - ESE 3.5 mph - N/A   Unknown
5:52 AM 37.0 °F 31.6 °F 28.0 °F 70% 29.93 in - SE 6.9 mph - N/A   Unknown
6:52 AM 41.0 °F 38.0 °F 30.0 °F 65% 29.93 in - West 4.6 mph - N/A   Unknown
7:52 AM 46.9 °F - 30.9 °F 54% 29.93 in - West 5.8 mph - N/A   Unknown
8:52 AM 51.1 °F - 30.9 °F 46% 29.93 in - West 4.6 mph - N/A   Unknown
9:52 AM 51.1 °F - 32.0 °F 48% 29.94 in - West 10.4 mph - N/A   Unknown
10:23 AM 46.4 °F 40.1 °F 35.6 °F 66% 29.98 in - NNW 15.0 mph 26.5 mph N/A   Unknown
10:52 AM 46.9 °F - 33.1 °F 59% 29.99 in - North 12.7 mph 24.2 mph N/A   Unknown
11:52 AM 41.0 °F 33.5 °F 36.0 °F 82% 30.04 in - NW 13.8 mph - 0.02 in   Unknown
12:18 PM 39.2 °F 31.2 °F 35.6 °F 87% 30.06 in - West 13.8 mph 27.6 mph 0.02 in   Unknown
12:52 PM 37.9 °F 32.1 °F 35.1 °F 89% 30.09 in - North 8.1 mph - 0.10 in   Unknown
1:52 PM 37.9 °F 35.5 °F 36.0 °F 93% 30.12 in - SE 3.5 mph - 0.07 in   Unknown
2:52 PM 41.0 °F - 36.0 °F 82% 30.11 in - Calm Calm - 0.02 in   Unknown
3:52 PM 43.0 °F - 37.0 °F 80% 30.11 in - Calm Calm - N/A   Unknown
4:52 PM 45.0 °F 41.8 °F 37.9 °F 76% 30.13 in - ENE 5.8 mph - N/A   Unknown
5:52 PM 45.0 °F 39.7 °F 39.0 °F 80% 30.12 in - NE 10.4 mph - N/A   Unknown
6:52 PM 46.0 °F 44.8 °F 37.0 °F 71% 30.12 in - NE 3.5 mph - N/A   Unknown
7:52 PM 41.0 °F 37.1 °F 35.1 °F 79% 30.15 in - West 5.8 mph - N/A   Unknown
8:52 PM 41.0 °F 34.3 °F 30.9 °F 67% 30.19 in - WNW 11.5 mph - N/A   Unknown
9:52 PM 37.9 °F 34.4 °F 33.1 °F 83% 30.23 in - WNW 4.6 mph - N/A   Unknown
10:52 PM 37.9 °F - 34.0 °F 86% 30.24 in - Calm Calm - N/A   Unknown
11:52 PM 37.0 °F 31.0 °F 30.9 °F 79% 30.27 in - West 8.1 mph - N/A   Unknown